Location: Allos
(44.2333°N, 6.6333°E)
Time: 10:07:32
(UTC+00:00)

Cosmos 1470 Rocket - Pass Details

Date: 01 December 2020
Orbit: 604 x 633 km, 82.5° (Epoch: 25 January)

Event Time Altitude Azimuth Distance (km) Brightness Sun altitude
Rises 17:07:09 0° 353° (N) 2,872 6.9 -12.4°
Reaches altitude 10° 17:09:23 10° 356° (N) 1,963 6.0 -12.8°
Maximum altitude 17:13:42 69° 80° (E) 649 3.4 -13.6°
Drops below altitude 10° 17:18:00 10° 165° (SSE) 1,948 6.1 -14.3°
Sets 17:20:13 0° 167° (SSE) 2,849 7.0 -14.7°
